Theta_e
345 345 345 345 346 347 348 351 351 351 351 351 350 350 349 350 350 349 349 349 347 345 345 346 346 346 349 346 347 347 347 347 346 346 346 346 346 346 346 346 345 345 345 345 345 345 344 345 346 346 343 338 336 328 328 328 329 331 330 331 333 332
344 344 345 345 346 346 348 350 347 348 349 349 350 350 348 347 350 345 348 346 344 345 343 343 344 349 345 346 346 347 346 346 346 346 346 346 346 346 346 346 346 345 345 344 345 334 338 342 345 344 343 339 331 328 328 328 328 329 330 330 332 334
343 344 344 345 345 346 347 347 347 347 348 349 349 348 346 347 344 344 344 343 344 342 342 342 343 345 345 346 345 346 346 346 346 345 346 345 345 345 345 345 346 345 344 344 334 333 335 334 334 342 341 333 329 328 328 328 328 328 328 329 327 335
342 343 343 343 344 345 346 345 346 346 346 346 346 346 345 344 344 343 342 342 341 341 341 341 347 348 348 344 344 346 345 345 345 345 345 345 344 344 344 344 344 346 342 339 332 332 335 334 333 331 330 329 328 328 327 327 327 328 329 332 329 336
342 342 342 342 344 344 344 344 343 344 344 345 344 344 344 343 343 341 340 340 340 340 339 340 340 341 340 339 338 339 341 339 336 335 341 333 333 338 336 333 332 334 329 332 334 333 334 334 333 331 328 326 326 327 327 328 328 328 328 328 331 335
340 340 340 341 342 343 343 342 342 342 343 343 343 342 342 342 341 340 339 340 340 339 338 337 338 338 338 336 336 336 336 335 333 333 336 331 330 331 328 330 330 330 329 329 331 334 337 335 332 331 330 330 328 328 327 327 328 328 329 328 332 335
339 338 338 340 340 341 341 342 342 343 342 340 340 340 340 340 339 338 339 341 338 338 337 336 336 336 336 336 335 335 334 333 332 331 333 331 328 330 329 329 328 328 327 328 329 331 336 335 332 331 331 332 331 329 328 329 329 328 328 329 334 335
338 337 338 339 338 338 337 339 341 344 342 341 338 339 339 338 337 337 339 340 340 338 337 336 336 336 335 335 335 334 333 332 331 330 332 329 329 327 327 327 327 327 327 327 328 335 334 333 331 331 331 331 332 330 329 329 330 329 330 330 331 335
337 337 337 338 337 334 334 338 341 341 338 341 336 337 338 337 336 337 339 339 339 337 336 336 335 335 335 335 334 333 332 331 330 331 331 330 328 328 327 326 327 326 324 326 328 335 333 331 330 329 330 330 331 331 330 329 330 330 331 331 331 333
336 336 336 336 335 334 334 337 340 339 338 340 335 336 336 335 335 336 337 338 339 337 337 336 335 335 334 333 333 332 332 330 329 329 330 330 328 327 326 325 326 327 326 326 334 334 330 329 330 329 329 330 331 331 331 330 331 331 332 332 332 333
336 337 335 335 334 334 335 336 339 339 338 337 336 337 335 335 334 335 337 338 338 338 337 336 336 335 334 334 334 332 332 330 329 328 330 329 328 329 326 326 326 326 327 328 333 331 329 329 330 330 330 330 330 330 330 330 331 333 333 332 332 330
335 335 335 334 334 334 335 336 338 339 338 336 337 336 335 335 335 334 337 338 338 338 338 336 336 335 334 334 334 334 333 331 330 330 330 329 330 330 328 328 331 331 329 331 331 329 329 330 329 329 329 329 329 329 329 330 330 331 331 331 330 330
335 334 333 333 333 334 334 336 337 338 338 338 337 336 335 335 334 335 337 338 338 339 338 336 335 335 336 333 334 334 333 333 333 331 330 333 333 332 331 333 331 331 332 331 330 329 330 329 329 329 329 330 330 329 329 329 329 329 330 330 329 329
336 334 334 333 334 334 334 335 337 337 338 338 337 336 335 335 336 336 337 338 339 339 337 336 335 333 333 331 332 334 333 333 334 333 333 335 334 332 332 330 330 332 335 330 329 328 328 327 327 327 328 329 329 329 329 329 328 328 329 329 328 328
337 334 335 334 335 334 334 336 337 336 337 337 336 335 335 335 336 336 337 337 339 338 336 335 335 333 331 332 332 333 332 334 335 334 332 333 333 333 332 330 330 331 330 330 329 329 327 326 326 326 326 326 327 328 328 328 328 329 329 327 328 327
337 335 334 335 334 334 335 336 337 339 336 336 336 334 335 335 336 336 338 337 337 337 335 334 333 332 331 331 332 333 334 334 335 334 333 333 334 332 331 330 330 330 329 328 329 327 327 326 326 326 327 327 327 327 326 326 328 328 328 328 327 327
336 335 334 336 335 334 336 336 336 337 337 336 336 335 335 335 336 336 337 336 336 335 334 333 333 332 332 332 332 333 331 335 334 333 333 332 332 332 331 331 329 330 330 328 328 327 325 325 326 328 328 327 326 326 326 327 327 327 328 327 326 327
336 335 334 334 334 334 335 335 335 336 337 337 337 336 336 337 336 336 336 334 334 334 334 332 332 333 332 333 332 331 330 334 333 334 333 332 331 332 332 331 329 328 330 329 327 326 325 326 329 329 328 325 324 326 328 328 328 329 326 326 325 325
335 331 330 332 333 333 334 333 333 335 336 336 337 338 337 336 336 336 334 334 334 334 334 332 332 332 332 333 330 330 330 332 334 333 333 331 331 331 331 331 329 329 329 330 328 326 326 326 328 329 327 324 325 326 328 328 326 326 325 326 328 330
333 331 330 330 332 332 332 333 332 332 332 333 336 337 337 336 336 335 335 334 334 333 333 333 332 332 332 331 330 330 331 332 332 332 331 330 329 330 330 329 329 329 329 330 329 328 327 327 327 327 326 326 326 326 327 326 327 325 325 327 329 327
331 330 329 327 330 331 330 331 332 331 331 332 334 334 335 335 335 335 335 334 334 334 333 332 333 332 331 334 330 330 330 330 332 331 330 329 330 331 331 330 329 330 329 328 326 327 327 327 326 325 326 327 327 328 328 326 327 327 328 328 326 326
331 330 329 326 329 332 331 332 332 331 330 330 331 331 333 333 334 335 334 334 335 334 334 333 333 332 333 331 329 330 330 330 331 331 331 330 330 333 331 329 329 327 327 328 325 328 327 326 321 322 321 321 323 326 327 326 325 326 328 328 326 325
331 330 328 328 329 331 332 332 332 330 329 329 332 333 334 333 334 334 333 334 335 335 335 334 333 334 333 332 330 330 329 330 330 332 331 330 330 330 330 329 329 327 325 325 327 328 326 323 321 323 323 320 317 317 321 323 326 327 326 325 326 325
330 330 328 329 330 330 332 331 332 331 332 331 329 333 333 333 333 333 333 334 334 335 335 335 334 334 334 333 331 330 330 329 331 332 331 330 329 328 328 327 326 327 327 324 326 326 328 326 324 321 314 311 316 317 313 317 320 323 327 326 326 324
330 330 329 329 329 330 331 330 331 331 331 329 330 329 331 330 332 332 332 332 332 334 335 334 334 333 333 330 331 331 332 331 332 331 331 330 329 329 329 328 328 327 327 326 324 324 326 324 325 323 319 315 312 311 312 317 320 320 323 324 325 327
330 330 330 330 329 330 329 329 328 327 325 325 324 326 328 328 329 330 331 332 333 334 334 333 332 332 332 331 330 332 332 332 332 331 331 330 330 329 329 328 328 329 327 327 326 325 323 325 326 325 321 318 318 313 313 318 318 312 321 323 323 326
329 328 330 329 328 330 329 329 329 328 327 325 325 327 330 331 330 331 331 331 333 333 333 332 331 331 331 331 331 332 333 333 333 332 332 330 329 329 330 330 330 328 327 327 327 324 323 323 323 324 324 323 323 318 321 318 314 317 314 320 323 322
329 328 329 329 327 329 329 329 328 328 328 327 327 327 329 330 330 331 331 331 331 332 332 332 331 331 331 332 333 332 333 333 332 332 332 330 330 329 329 329 330 329 328 327 327 325 323 324 323 321 322 320 320 321 321 316 319 317 315 314 317 323
328 329 329 328 327 328 329 329 329 329 328 329 329 329 329 330 330 332 330 330 331 332 332 332 331 331 331 333 334 333 333 333 332 332 333 331 330 329 328 328 328 327 327 326 326 326 325 324 322 321 321 318 319 319 318 317 320 316 316 316 316 318
328 329 329 328 327 327 328 328 328 328 328 327 328 327 328 329 330 331 330 330 331 330 331 331 330 331 331 333 333 332 332 332 332 332 332 331 330 329 328 328 328 328 327 326 325 326 326 325 324 323 323 322 319 317 316 316 315 314 317 319 316 316
328 328 329 328 327 327 327 328 328 327 327 327 327 326 326 327 328 329 330 330 331 330 330 330 329 330 331 332 332 333 332 332 332 332 332 330 329 329 328 328 328 328 327 327 327 326 325 325 324 324 322 322 321 321 318 315 316 316 315 314 316 317
327 327 328 328 327 327 327 327 328 327 327 328 327 326 326 326 328 328 330 329 330 328 327 327 329 328 330 331 331 330 331 331 331 330 330 330 329 329 329 328 327 328 327 327 327 326 325 324 324 324 323 322 322 322 319 319 319 318 317 315 317 317
327 327 327 327 327 326 326 327 328 328 327 328 327 327 326 326 327 328 329 330 328 325 326 326 327 328 329 329 330 329 328 327 328 329 329 327 328 329 329 328 327 328 328 327 326 326 325 324 324 324 323 321 322 322 320 320 321 319 317 318 318 316
327 327 327 326 326 325 326 327 328 328 328 329 328 328 328 327 327 328 329 330 329 327 327 328 327 327 328 329 329 329 329 329 328 328 328 327 329 330 329 328 328 328 327 327 326 325 325 324 324 324 323 322 322 323 321 321 321 319 318 318 316 316
325 326 325 325 325 324 325 325 326 327 327 327 327 325 326 328 328 328 328 330 329 329 329 328 328 328 329 328 328 328 328 328 327 327 327 328 330 330 329 329 329 328 327 326 326 325 324 324 324 323 323 324 323 323 322 322 322 321 320 320 319 318
324 323 323 323 323 323 323 324 325 324 325 326 326 327 326 326 328 328 329 330 329 329 328 327 327 328 328 328 327 327 328 327 326 326 327 328 329 329 329 328 327 327 326 328 326 324 324 324 324 324 324 322 323 323 323 323 323 322 321 321 320 319
322 322 323 324 323 323 324 324 324 323 323 324 326 327 327 328 329 329 329 329 329 329 328 328 328 328 327 327 326 327 327 325 325 326 327 328 328 328 327 327 327 325 325 325 326 325 325 325 324 324 322 323 323 323 322 324 324 322 321 321 321 320
Wind_Speed
12 13 11 11 10 11 12 15 13 15 16 16 14 15 14 13 13 13 12 12 11 8 6 7 9 8 13 8 11 12 11 10 10 10 10 10 10 8 7 7 7 6 6 6 5 5 5 6 8 10 12 13 12 6 6 6 6 5 4 5 4 6
14 16 14 11 9 9 9 12 10 10 10 12 14 14 11 8 9 7 13 9 6 6 6 6 7 9 6 9 9 12 10 9 9 9 9 9 9 8 6 6 6 6 4 3 4 3 3 7 10 11 13 13 7 5 5 5 5 5 4 4 5 8
6 8 11 9 8 7 8 7 8 8 8 10 11 11 8 9 7 8 7 7 6 6 6 5 5 7 6 11 9 12 11 9 8 9 8 8 9 9 7 5 5 5 3 2 2 2 4 5 6 12 14 8 5 5 5 4 5 5 5 4 4 11
2 4 5 4 3 4 5 5 5 6 6 7 8 7 8 7 7 8 7 6 6 6 6 6 10 15 12 7 7 11 11 9 8 8 8 6 7 9 8 5 4 3 3 2 2 2 5 5 6 6 6 6 6 5 5 3 5 5 4 4 4 12
5 4 5 6 6 6 6 5 5 5 6 6 6 6 6 7 7 7 7 6 6 6 6 6 5 5 5 5 4 5 5 4 3 2 5 3 3 3 4 3 1 2 1 1 2 3 5 5 6 7 6 6 6 5 5 4 5 4 3 3 5 12
9 7 5 6 6 6 7 5 5 5 5 5 5 5 5 6 6 7 6 6 6 7 6 5 5 6 5 5 5 5 5 5 3 2 3 4 4 3 3 2 2 1 1 1 2 3 4 4 6 6 5 5 6 5 5 4 5 5 4 3 5 12
8 7 5 4 4 4 5 4 4 4 5 4 4 5 5 6 6 6 6 7 7 6 6 6 6 6 6 5 5 5 5 5 4 3 2 4 3 3 4 4 3 2 1 1 2 3 4 3 6 7 5 5 5 5 5 5 5 5 5 4 5 11
7 7 6 6 5 4 3 4 4 6 5 5 5 4 4 5 6 6 6 6 6 6 7 6 6 6 5 5 5 5 5 5 5 4 2 2 3 3 3 3 3 2 2 2 1 3 4 4 5 6 6 5 4 5 4 5 5 5 5 4 3 8
6 5 5 6 5 4 4 4 4 4 5 5 4 4 4 5 5 5 5 6 6 6 5 6 6 6 5 5 5 5 5 5 3 3 3 3 3 3 3 3 3 3 2 1 2 5 4 4 3 4 6 6 5 5 4 3 3 4 4 4 3 6
6 5 5 6 5 5 4 5 4 4 4 5 4 4 4 4 4 5 5 5 6 6 7 6 6 6 6 6 5 4 4 4 4 3 4 4 4 3 4 3 3 1 1 3 5 4 5 5 3 3 5 6 5 5 4 3 3 4 4 5 4 4
4 4 4 5 5 5 4 4 5 5 5 5 5 5 4 4 4 4 5 5 6 6 6 6 6 6 5 6 5 5 5 4 5 5 5 4 3 4 3 4 3 2 2 5 5 4 5 5 4 3 4 6 5 4 4 3 3 3 4 4 4 4
5 4 5 5 4 5 4 4 4 5 5 5 6 6 5 5 4 4 4 5 5 6 6 6 7 6 6 5 5 6 5 5 6 5 5 5 5 4 3 1 3 2 3 6 6 5 4 5 4 4 3 5 5 5 4 4 3 3 3 3 3 3
5 4 5 5 4 3 4 4 5 6 5 6 6 6 6 6 5 4 4 5 5 6 6 6 5 7 6 5 5 5 5 6 6 6 5 5 6 4 4 3 3 3 6 7 6 6 5 4 5 4 3 4 5 5 4 4 3 3 3 3 3 3
6 6 5 4 4 4 4 4 4 5 5 6 6 6 6 6 6 6 5 4 5 5 5 5 6 5 5 5 4 5 6 5 5 5 7 6 6 6 6 6 4 5 5 7 7 6 6 5 3 4 3 3 5 5 4 4 3 3 3 3 3 3
7 6 5 5 5 5 4 5 5 4 5 5 5 5 6 6 6 6 6 5 5 5 5 5 5 6 5 5 4 4 5 5 5 5 6 5 6 6 7 6 6 6 5 5 6 5 4 5 4 4 4 4 4 4 4 4 3 3 3 3 3 2
8 7 6 6 5 5 5 4 5 5 5 5 5 4 5 6 6 5 5 5 5 5 5 5 4 4 5 4 5 4 5 4 5 5 5 4 5 6 6 6 5 7 7 5 6 5 3 5 4 3 3 4 3 4 4 3 3 4 3 4 3 2
10 8 7 6 6 5 5 4 4 4 5 5 6 5 4 4 5 5 5 5 5 5 5 5 5 5 6 5 4 4 3 4 4 5 5 4 5 6 6 6 4 4 7 6 6 6 3 3 4 4 4 5 3 3 4 4 3 3 3 4 3 3
8 7 7 6 6 7 5 4 4 4 5 6 5 5 4 4 5 5 5 5 6 6 5 5 5 5 5 5 4 3 2 4 4 5 5 5 5 5 6 7 6 3 5 7 6 7 6 3 3 5 4 4 3 3 4 4 3 4 3 3 3 3
8 8 6 7 4 6 5 3 3 4 5 5 5 5 5 4 4 4 5 6 6 6 5 5 5 5 6 5 4 3 3 3 4 5 6 5 5 5 5 5 8 5 2 4 7 6 6 4 4 4 4 3 4 4 4 4 3 3 4 3 2 2
9 10 7 5 3 4 3 4 5 4 2 2 3 5 5 5 5 5 5 6 6 6 5 5 5 5 5 5 5 4 4 3 3 5 6 6 5 6 7 7 8 9 6 4 3 5 5 6 5 5 4 4 4 5 4 4 4 3 2 3 3 3
10 10 8 6 2 7 6 4 2 4 5 5 3 3 5 5 5 5 6 6 6 6 6 6 5 5 6 5 5 4 5 3 4 4 6 6 6 7 7 7 7 7 10 7 3 3 4 6 8 5 4 5 5 4 4 4 4 3 2 2 2 2
9 9 9 10 9 6 4 5 4 5 4 4 2 1 1 3 5 4 6 6 6 7 7 7 6 5 6 6 6 5 5 6 5 5 6 5 5 6 8 8 7 6 2 9 5 5 7 7 2 5 6 3 4 4 4 3 2 2 2 2 4 2
8 9 8 9 7 4 4 5 3 3 7 6 4 5 1 2 2 5 6 7 6 7 7 7 7 6 6 6 6 6 6 5 4 5 6 6 6 7 8 10 10 10 7 3 5 4 6 1 6 3 4 4 2 2 1 2 2 3 2 2 3 3
9 9 9 9 8 3 5 5 3 2 3 3 4 4 4 4 4 4 5 6 6 6 7 7 7 6 5 5 6 7 6 5 5 4 7 7 6 7 7 6 5 5 9 8 5 4 5 1 6 10 3 2 1 1 3 1 2 2 2 1 2 3
10 10 9 9 7 6 9 5 2 5 3 3 2 2 3 5 6 6 6 6 7 5 7 6 6 7 6 6 5 6 6 6 5 5 6 6 7 7 7 7 9 8 9 10 8 5 4 2 6 3 7 5 2 0 2 1 2 3 2 1 2 3
9 9 10 10 9 9 10 9 8 7 6 4 5 6 8 9 8 8 8 6 5 6 5 5 6 6 5 6 6 6 5 6 6 6 6 6 6 6 6 7 8 8 8 8 10 9 5 4 7 4 3 3 6 5 6 4 3 2 2 1 2 2
10 8 9 9 10 9 10 10 11 11 10 10 9 7 5 6 6 4 4 5 5 5 5 6 5 5 6 6 5 5 5 6 6 6 5 6 6 7 6 7 6 6 8 7 7 8 8 7 4 4 3 0 2 2 9 9 4 4 3 0 2 2
9 10 8 8 9 10 11 10 10 10 9 8 9 10 8 6 5 3 4 6 5 5 6 6 6 5 6 6 5 5 5 6 7 6 6 6 7 5 5 4 6 7 6 7 8 8 7 7 9 4 1 2 3 4 7 3 4 5 6 7 4 2
11 11 10 11 10 9 9 11 11 9 8 8 8 7 6 6 6 6 6 5 6 6 5 6 6 6 6 6 5 6 6 6 6 6 6 6 5 5 6 6 6 6 7 7 7 6 7 7 6 5 4 3 5 6 3 2 6 2 4 4 3 3
15 12 12 13 12 13 11 9 10 11 13 9 6 4 5 7 8 7 8 8 6 6 6 5 5 6 6 6 5 6 6 7 7 7 5 6 5 5 5 6 6 6 7 7 4 7 8 7 6 5 5 6 5 4 3 3 2 3 3 1 5 8
13 11 12 13 13 14 11 10 10 10 11 10 9 7 6 6 7 7 8 7 7 7 6 6 5 5 6 6 5 6 6 6 6 6 6 6 6 7 6 6 6 5 5 7 6 6 5 5 6 6 5 6 8 9 8 6 8 6 5 5 4 4
11 12 11 11 10 10 10 10 8 9 10 10 9 9 10 9 9 9 8 8 5 3 1 2 4 5 5 5 6 6 5 6 6 6 6 5 5 6 6 6 6 6 5 5 5 7 6 6 6 6 5 5 6 6 4 5 7 7 8 7 8 7
12 12 12 9 9 7 7 9 9 9 8 7 8 8 9 9 9 9 8 7 7 7 6 6 6 5 5 6 6 6 5 3 4 5 4 5 5 6 6 6 6 5 5 6 6 7 7 7 7 7 7 5 5 5 5 4 6 7 4 6 7 8
9 8 10 10 9 7 7 7 7 7 8 6 6 5 7 8 8 7 7 7 8 9 9 10 7 7 7 7 6 6 7 8 6 5 6 6 7 7 7 6 6 6 6 6 5 6 6 6 6 6 5 6 5 6 5 5 6 7 7 7 7 9
4 6 6 9 8 8 6 5 5 4 5 3 4 2 6 4 6 7 6 7 6 7 8 7 7 7 7 7 7 6 6 6 5 5 5 6 7 7 6 6 6 6 5 5 5 6 5 6 6 5 5 6 6 5 5 5 7 7 7 8 9 8
7 6 4 1 1 1 1 1 3 4 4 4 7 9 5 6 5 6 7 7 7 7 6 6 5 6 6 7 7 6 6 6 5 5 6 7 7 6 6 6 6 6 6 4 6 5 5 6 5 5 5 4 5 5 5 6 6 7 7 7 7 7
6 4 1 3 4 6 7 5 3 3 2 4 7 9 8 8 7 6 7 7 8 8 7 8 8 6 6 5 6 7 6 6 5 6 6 6 6 5 5 6 6 5 5 4 5 6 5 6 5 5 4 5 6 5 5 4 5 6 6 6 7 7
Wind_Direction
176 169 163 163 169 171 173 166 158 153 154 153 145 144 144 140 136 138 138 138 138 131 128 127 127 134 136 132 134 136 132 128 127 124 121 118 116 113 110 99 90 78 64 51 37 31 30 46 58 83 96 104 99 91 101 107 110 109 104 102 107 111
173 172 170 168 168 170 170 164 160 159 156 154 152 150 148 147 141 138 140 132 128 130 122 128 139 137 133 138 138 140 137 132 133 125 122 123 119 114 107 102 98 92 71 51 27 19 20 37 43 76 111 107 98 97 101 112 114 109 105 108 111 117
168 160 164 163 157 159 162 156 160 158 155 155 157 154 152 148 140 139 137 135 130 124 129 131 133 138 135 143 143 144 140 141 134 127 126 125 122 116 106 95 90 87 79 38 25 6 44 47 46 78 105 103 99 97 98 105 106 104 105 106 107 115
33 120 126 94 114 143 150 157 159 159 155 155 156 155 153 146 143 141 142 136 132 131 130 136 148 147 145 143 149 147 144 148 140 130 131 120 123 119 112 99 96 84 54 19 0 1 43 62 66 79 94 104 104 106 106 107 101 100 105 112 123 122
136 153 143 143 153 163 156 154 155 158 152 152 150 153 147 142 142 139 140 135 135 132 135 141 135 127 123 137 130 128 132 119 104 109 107 93 98 101 97 99 54 52 21 8 355 360 49 73 76 81 89 104 110 110 108 102 101 101 99 103 110 112
149 157 150 152 163 164 158 156 157 155 146 143 144 141 140 139 140 141 138 137 135 132 135 129 125 132 136 131 129 129 131 127 125 140 117 121 116 123 127 132 139 130 322 326 327 11 53 101 92 89 90 93 107 115 115 111 109 114 117 122 122 127
154 147 142 141 143 154 157 147 145 148 143 136 130 136 136 136 142 141 139 141 139 140 137 132 134 139 142 140 137 138 138 140 147 157 161 134 157 159 156 161 161 174 207 234 296 41 75 95 103 103 101 105 115 126 128 128 127 125 117 108 117 125
167 157 151 141 140 141 141 144 141 156 135 138 133 133 130 134 135 141 142 142 139 141 143 141 142 145 149 139 146 144 144 151 161 176 169 145 160 174 166 171 162 152 193 218 97 98 93 88 97 105 107 106 108 112 122 131 137 127 117 107 111 133
168 161 138 137 138 123 128 131 136 134 139 153 126 130 125 128 137 141 143 138 139 140 141 143 149 151 144 150 150 154 157 163 173 181 157 181 175 183 181 177 188 181 162 215 110 118 108 84 92 107 109 107 116 124 127 127 120 111 104 101 102 134
171 153 134 128 128 135 149 143 143 137 149 140 133 123 127 131 139 147 147 143 147 146 151 154 153 151 150 157 163 160 155 171 182 181 169 179 202 180 194 188 200 179 130 133 123 127 109 96 94 108 120 118 118 128 128 136 124 118 121 118 121 126
165 148 130 135 135 145 143 143 140 140 148 140 135 127 125 128 146 155 154 150 147 150 149 155 157 158 157 158 164 166 173 172 188 191 175 190 194 193 186 202 158 166 145 140 122 117 104 105 109 123 127 122 126 117 102 90 96 112 117 118 122 127
163 142 138 132 136 149 148 146 140 144 148 144 141 136 137 142 158 166 163 154 151 153 156 162 159 163 164 159 165 175 177 176 195 195 177 184 192 203 180 125 146 126 136 114 113 97 95 114 123 139 129 114 113 103 91 96 96 99 104 103 109 111
157 143 141 140 144 151 148 151 153 152 146 149 145 142 148 157 161 170 172 165 157 161 161 159 162 165 162 153 148 156 174 190 192 177 181 186 185 182 116 123 104 131 103 99 102 99 98 103 124 120 104 108 113 109 104 96 98 93 89 96 99 108
159 153 142 123 139 161 170 161 156 150 147 149 153 151 155 158 162 168 171 169 163 164 159 157 153 158 154 144 131 152 174 187 181 165 166 160 147 135 133 128 139 108 112 118 119 122 123 116 101 100 104 109 102 112 116 113 105 101 95 88 100 96
166 153 144 139 159 174 173 166 157 149 148 152 154 153 157 161 165 165 160 164 165 158 157 159 162 153 154 145 138 144 169 179 165 157 147 143 120 110 130 132 129 111 104 101 111 111 119 121 125 120 117 100 106 111 113 124 120 112 103 103 100 101
161 156 146 154 169 172 170 174 167 154 144 146 146 155 166 173 164 155 156 156 160 150 156 162 159 155 144 153 151 148 173 164 161 137 130 121 110 114 121 122 130 133 119 112 111 101 109 121 116 121 96 85 89 96 108 114 120 111 106 100 93 97
165 158 140 152 170 161 163 174 169 139 137 145 150 159 175 166 156 158 154 151 149 149 160 162 165 167 149 156 153 151 149 163 154 136 129 125 117 128 129 123 123 131 132 127 117 114 110 116 119 110 92 84 81 102 109 113 111 110 107 106 106 106
148 129 132 151 160 155 158 158 148 154 152 151 150 154 166 162 162 162 149 146 149 153 162 166 168 163 146 153 150 149 126 130 146 134 132 129 134 128 131 130 119 116 128 124 126 130 131 122 111 118 88 87 87 77 82 96 105 110 110 118 109 114
134 106 120 183 149 143 146 123 109 143 168 150 138 146 149 151 160 156 151 149 151 156 165 167 165 152 144 151 141 133 132 125 138 140 135 130 130 132 130 126 120 101 54 116 137 137 128 123 103 98 90 67 76 75 78 80 85 97 99 109 114 101
118 122 147 178 75 92 121 158 153 183 142 107 146 147 148 155 160 160 154 154 155 155 165 165 162 159 154 156 146 154 153 130 134 142 138 141 147 143 140 120 118 128 128 99 83 115 119 118 95 80 81 72 72 75 68 70 81 90 105 122 123 103
131 138 134 69 18 167 175 167 154 175 173 161 164 141 143 161 170 158 157 160 155 158 163 163 167 164 167 165 150 158 152 149 143 162 146 162 167 148 141 134 131 131 134 127 114 124 131 125 113 84 59 69 66 62 80 76 78 83 84 96 80 93
133 141 126 145 188 193 159 173 171 159 109 67 56 134 170 179 171 160 164 165 161 164 167 170 173 171 169 165 151 170 166 167 159 167 157 162 157 135 129 130 131 104 117 143 150 168 159 125 75 133 129 109 72 62 49 58 86 84 78 92 103 115
134 136 138 159 173 162 146 161 169 145 144 158 165 154 155 236 219 172 172 171 168 168 169 174 178 174 169 169 163 168 169 163 161 163 138 155 144 130 140 145 151 145 151 140 135 169 184 167 126 104 90 89 114 88 55 47 55 92 63 72 90 105
137 139 149 169 170 120 92 55 358 84 142 145 168 159 135 163 204 178 182 183 181 171 177 176 178 173 167 168 166 166 161 159 168 178 148 152 143 132 132 127 112 157 139 135 148 190 219 147 135 136 143 189 124 48 112 313 79 37 82 97 105 89
142 149 161 173 160 119 113 145 147 108 96 75 56 120 135 169 196 189 179 187 193 180 178 170 176 177 164 167 171 161 166 166 161 173 149 147 147 151 158 158 153 162 156 150 158 169 218 185 194 174 135 118 73 65 236 118 104 45 48 91 77 134
141 148 161 171 155 143 150 161 158 150 171 163 176 199 188 186 192 191 191 184 181 183 175 166 180 175 163 167 173 170 170 154 166 162 157 154 150 145 151 159 169 163 158 164 155 164 168 191 203 210 222 156 161 173 161 145 144 140 11 23 145 175
151 157 164 168 161 156 161 168 170 178 179 180 187 202 191 182 182 188 157 179 187 182 177 170 187 178 174 183 173 172 168 160 168 160 156 146 153 165 169 168 161 159 163 156 151 159 169 175 194 265 220 175 119 116 143 144 184 104 142 174 148 143
162 163 177 175 171 171 168 174 171 181 184 179 195 195 180 165 157 160 186 188 183 189 184 175 182 192 182 178 174 175 165 166 160 163 155 159 166 169 154 146 159 164 155 162 162 158 172 173 176 202 112 76 75 114 138 72 129 156 144 155 148 84
168 166 178 180 178 184 179 177 174 170 179 201 204 196 155 152 156 173 190 199 191 195 187 180 181 185 187 181 173 177 167 168 159 162 161 161 164 159 162 150 148 152 162 170 170 166 158 182 177 176 123 75 103 132 103 84 130 103 136 144 99 157
165 171 178 180 181 187 184 176 175 179 186 186 196 209 179 164 164 174 182 191 196 192 190 183 187 191 183 185 177 177 168 173 164 160 163 169 164 165 162 156 163 170 163 163 173 163 174 177 184 170 155 147 134 132 84 93 115 114 71 92 165 182
163 169 181 184 185 187 185 182 184 183 186 182 185 189 184 181 169 173 185 187 186 189 187 187 186 191 192 179 176 174 168 167 161 162 167 166 162 172 167 164 170 168 163 160 165 170 167 173 171 169 165 160 163 169 173 167 174 168 153 154 122 141
171 173 183 191 191 188 186 189 189 185 189 188 181 192 186 185 182 184 181 185 174 111 102 283 194 179 184 178 166 163 163 151 161 164 177 163 163 159 164 162 166 163 172 168 166 163 164 170 176 178 177 175 179 179 159 154 167 163 162 165 158 156
182 178 180 188 194 190 187 191 192 190 195 193 189 199 188 193 184 183 180 178 145 161 175 204 219 175 181 175 163 153 137 148 180 172 175 153 179 158 158 166 166 165 167 168 176 164 167 180 175 177 188 189 175 174 182 163 147 160 140 130 145 146
192 188 178 180 183 188 201 200 199 197 196 192 195 202 199 191 194 185 178 176 163 166 181 196 183 181 175 169 163 162 162 175 178 174 172 166 162 167 162 162 162 164 169 180 164 165 173 173 175 181 169 171 187 186 181 161 153 143 147 139 152 159
227 209 195 186 180 184 190 200 210 215 202 173 115 22 291 230 188 185 182 170 166 163 176 178 173 174 166 163 160 157 165 166 163 152 155 156 159 161 160 152 163 167 170 169 167 162 167 165 170 168 179 182 181 187 177 169 155 165 158 165 160 162
341 1 360 335 341 41 38 262 227 208 196 153 150 173 211 270 214 188 180 173 167 173 166 152 168 164 170 156 155 158 161 160 148 141 151 151 152 153 155 153 154 158 166 168 163 170 173 170 175 174 179 170 160 187 173 164 164 161 170 165 158 156
57 52 311 49 74 63 32 1 310 289 228 183 174 188 196 211 200 201 183 177 169 171 157 163 169 165 158 154 149 153 160 153 147 145 144 146 147 148 148 149 154 157 160 165 158 175 172 174 179 172 171 174 181 182 184 159 152 156 164 159 168 168